• In Germany
  • List of Countries
  • For 7 days
  • Water Temperature
  • Satellite Maps
  • Weather Map
  • Weather Widgets
  • user-avatar
    Login

    Hourly Weather Głogów

    Today, 21 October, Saturday

    Time Temperature Precipitation Wind Pressure Humidity
    00:00 +13°C° 0 mm 3 mps 754 mmHg 70%
    01:00 +13°C° 0 mm 2 mps 753 mmHg 80%
    02:00 +13°C° 0 mm 2 mps 753 mmHg 82%
    03:00 +11°C° 0 mm 3 mps 753 mmHg 85%
    04:00 +11°C° 0 mm 3 mps 753 mmHg 88%
    05:00 +11°C° 0 mm 3 mps 753 mmHg 89%
    06:00 +10°C° 0 mm 3 mps 754 mmHg 90%
    07:00 +10°C° 0 mm 2 mps 754 mmHg 91%
    08:00 +12°C° 0 mm 2 mps 754 mmHg 85%
    09:00 +13°C° 0 mm 3 mps 754 mmHg 78%
    10:00 +14°C° 0 mm 3 mps 754 mmHg 72%
    11:00 +16°C° 0 mm 3 mps 754 mmHg 67%
    12:00 +16°C° 0 mm 3 mps 754 mmHg 62%
    13:00 +17°C° 0 mm 3 mps 754 mmHg 57%
    14:00 +17°C° 0 mm 2 mps 754 mmHg 60%
    15:00 +16°C° 0 mm 2 mps 754 mmHg 62%
    16:00 +16°C° 0 mm 2 mps 754 mmHg 64%
    17:00 +15°C° 0 mm 1 mps 754 mmHg 67%
    18:00 +14°C° 0 mm 1 mps 754 mmHg 69%
    19:00 +13°C° 0 mm 1 mps 754 mmHg 72%
    20:00 +13°C° 0 mm 1 mps 754 mmHg 71%
    21:00 +13°C° 0 mm 1 mps 754 mmHg 71%
    22:00 +13°C° 0 mm 1 mps 754 mmHg 70%
    23:00 +13°C° 0 mm 2 mps 754 mmHg 70%

    Tomorrow, 22 October, Sunday

    Time Temperature Precipitation Wind Pressure Humidity
    00:00 +13°C° 0 mm 2 mps 753 mmHg 71%
    01:00 +13°C° 0 mm 2 mps 753 mmHg 71%
    02:00 +12°C° 0.2 mm 3 mps 753 mmHg 72%
    03:00 +12°C° 0.2 mm 3 mps 752 mmHg 72%
    04:00 +12°C° 0.2 mm 3 mps 752 mmHg 73%
    05:00 +12°C° 3.2 mm 3 mps 752 mmHg 79%
    06:00 +11°C° 3.2 mm 3 mps 752 mmHg 85%
    07:00 +11°C° 3.2 mm 3 mps 752 mmHg 91%
    08:00 +12°C° 1 mm 4 mps 752 mmHg 89%
    09:00 +12°C° 1 mm 4 mps 752 mmHg 87%
    10:00 +12°C° 1 mm 4 mps 753 mmHg 85%
    11:00 +12°C° 0.1 mm 4 mps 752 mmHg 82%
    12:00 +13°C° 0.1 mm 4 mps 752 mmHg 80%
    13:00 +13°C° 0.1 mm 4 mps 752 mmHg 78%
    14:00 +13°C° 0 mm 3 mps 752 mmHg 77%
    15:00 +13°C° 0 mm 3 mps 752 mmHg 77%
    16:00 +14°C° 0 mm 2 mps 752 mmHg 76%
    17:00 +13°C° 0 mm 2 mps 752 mmHg 78%
    18:00 +12°C° 0 mm 2 mps 753 mmHg 80%
    19:00 +10°C° 0 mm 2 mps 753 mmHg 83%
    20:00 +10°C° 0 mm 2 mps 753 mmHg 83%
    21:00 +9°C° 0 mm 2 mps 753 mmHg 84%
    22:00 +9°C° 0 mm 2 mps 753 mmHg 85%
    23:00 +9°C° 0 mm 2 mps 753 mmHg 85%

    Day after tomorrow, 23 October, Monday

    Time Temperature Precipitation Wind Pressure Humidity
    00:00 +8°C° 0 mm 2 mps 753 mmHg 86%
    01:00 +8°C° 0 mm 2 mps 753 mmHg 86%
    02:00 +8°C° 0 mm 2 mps 753 mmHg 87%
    03:00 +8°C° 0 mm 2 mps 753 mmHg 87%
    04:00 +7°C° 0 mm 2 mps 753 mmHg 88%
    05:00 +7°C° 0 mm 2 mps 753 mmHg 89%
    06:00 +7°C° 0 mm 2 mps 753 mmHg 90%
    07:00 +7°C° 0 mm 2 mps 753 mmHg 91%
    08:00 +8°C° 0 mm 2 mps 753 mmHg 85%
    09:00 +9°C° 0 mm 2 mps 753 mmHg 80%
    10:00 +10°C° 0 mm 2 mps 754 mmHg 75%
    11:00 +12°C° 0 mm 2 mps 754 mmHg 71%
    12:00 +13°C° 0 mm 2 mps 754 mmHg 68%
    13:00 +13°C° 0 mm 1 mps 754 mmHg 64%
    14:00 +13°C° 0 mm 1 mps 754 mmHg 66%
    15:00 +13°C° 0 mm 2 mps 754 mmHg 68%
    16:00 +12°C° 0 mm 2 mps 754 mmHg 70%
    17:00 +12°C° 0 mm 2 mps 755 mmHg 73%
    18:00 +10°C° 0 mm 2 mps 755 mmHg 76%
    19:00 +10°C° 0 mm 2 mps 756 mmHg 79%
    20:00 +9°C° 0 mm 2 mps 756 mmHg 81%
    21:00 +9°C° 0 mm 2 mps 756 mmHg 83%
    22:00 +9°C° 0 mm 2 mps 757 mmHg 85%
    23:00 +8°C° 0 mm 2 mps 757 mmHg 87%

    24 October, Tuesday

    Time Temperature Precipitation Wind Pressure Humidity
    00:00 +8°C° 0 mm 2 mps 758 mmHg 89%
    01:00 +8°C° 0 mm 2 mps 758 mmHg 91%
    02:00 +7°C° 0 mm 2 mps 758 mmHg 93%
    03:00 +7°C° 0 mm 2 mps 759 mmHg 94%
    04:00 +7°C° 0 mm 2 mps 759 mmHg 96%
    05:00 +7°C° 0 mm 2 mps 759 mmHg 96%
    06:00 +7°C° 0 mm 2 mps 760 mmHg 96%
    07:00 +7°C° 0 mm 2 mps 760 mmHg 96%
    08:00 +8°C° 0 mm 2 mps 761 mmHg 92%
    09:00 +9°C° 0 mm 2 mps 761 mmHg 89%
    10:00 +10°C° 0 mm 2 mps 762 mmHg 85%
    11:00 +11°C° 0 mm 1 mps 762 mmHg 84%
    12:00 +11°C° 0 mm 1 mps 762 mmHg 82%
    13:00 +11°C° 0 mm 1 mps 762 mmHg 80%
    14:00 +11°C° 0 mm 1 mps 762 mmHg 81%
    15:00 +11°C° 0 mm 1 mps 762 mmHg 82%
    16:00 +11°C° 0 mm 1 mps 763 mmHg 82%
    17:00 +11°C° 0 mm 1 mps 763 mmHg 83%
    18:00 +10°C° 0 mm 1 mps 763 mmHg 84%
    19:00 +10°C° 0 mm 1 mps 763 mmHg 84%
    20:00 +10°C° 0 mm 1 mps 764 mmHg 84%
    21:00 +10°C° 0 mm 1 mps 764 mmHg 84%
    22:00 +9°C° 0 mm 1 mps 764 mmHg 84%
    23:00 +9°C° 0 mm 1 mps 764 mmHg 85%

    25 October, Wednesday

    Time Temperature Precipitation Wind Pressure Humidity
    00:00 +9°C° 0 mm 1 mps 764 mmHg 85%
    01:00 +8°C° 0 mm 1 mps 764 mmHg 86%
    02:00 +8°C° 0 mm 1 mps 764 mmHg 87%
    03:00 +7°C° 0 mm 1 mps 764 mmHg 88%
    04:00 +7°C° 0 mm 1 mps 764 mmHg 90%
    05:00 +6°C° 0 mm 2 mps 764 mmHg 89%
    06:00 +6°C° 0 mm 2 mps 764 mmHg 89%
    07:00 +6°C° 0 mm 2 mps 764 mmHg 88%
    08:00 +7°C° 0 mm 2 mps 764 mmHg 83%
    09:00 +8°C° 0 mm 3 mps 764 mmHg 77%
    10:00 +10°C° 0 mm 3 mps 765 mmHg 71%
    11:00 +10°C° 0 mm 3 mps 764 mmHg 68%
    12:00 +11°C° 0 mm 3 mps 764 mmHg 65%
    13:00 +11°C° 0 mm 3 mps 764 mmHg 63%
    14:00 +11°C° 0 mm 3 mps 763 mmHg 64%
    15:00 +11°C° 0 mm 3 mps 763 mmHg 65%
    16:00 +11°C° 0 mm 3 mps 763 mmHg 65%
    17:00 +11°C° 0 mm 3 mps 763 mmHg 65%
    18:00 +10°C° 0 mm 3 mps 763 mmHg 65%
    19:00 +10°C° 0 mm 3 mps 763 mmHg 64%
    20:00 +10°C° 0 mm 3 mps 763 mmHg 66%
    21:00 +10°C° 0 mm 3 mps 763 mmHg 67%
    22:00 +10°C° 0 mm 3 mps 763 mmHg 68%
    23:00 +10°C° 0 mm 3 mps 763 mmHg 71%

    26 October, Thursday

    Time Temperature Precipitation Wind Pressure Humidity
    00:00 +10°C° 0 mm 3 mps 763 mmHg 73%
    01:00 +10°C° 0 mm 2 mps 763 mmHg 76%
    02:00 +10°C° 0 mm 2 mps 762 mmHg 79%
    03:00 +10°C° 0 mm 2 mps 762 mmHg 82%
    04:00 +12°C° 0 mm 2 mps 762 mmHg 84%
    05:00 +12°C° 0.1 mm 2 mps 762 mmHg 87%
    06:00 +12°C° 0.1 mm 2 mps 762 mmHg 89%
    07:00 +12°C° 0.1 mm 2 mps 762 mmHg 92%
    08:00 +12°C° 0 mm 3 mps 762 mmHg 89%
    09:00 +13°C° 0 mm 3 mps 762 mmHg 87%
    10:00 +14°C° 0 mm 3 mps 762 mmHg 85%
    11:00 +15°C° 0 mm 4 mps 762 mmHg 82%
    12:00 +15°C° 0 mm 4 mps 761 mmHg 78%
    13:00 +17°C° 0 mm 4 mps 761 mmHg 75%
    14:00 +17°C° 0 mm 3 mps 761 mmHg 76%
    15:00 +17°C° 0 mm 3 mps 761 mmHg 78%
    16:00 +16°C° 0 mm 3 mps 760 mmHg 79%
    17:00 +14°C° 0 mm 3 mps 760 mmHg 83%
    18:00 +15°C° 0 mm 2 mps 760 mmHg 87%
    19:00 +14°C° 0 mm 2 mps 760 mmHg 90%
    20:00 +13°C° 0 mm 3 mps 759 mmHg 91%
    21:00 +12°C° 0 mm 3 mps 759 mmHg 91%
    22:00 +12°C° 0 mm 3 mps 758 mmHg 92%
    23:00 +12°C° 0 mm 3 mps 758 mmHg 90%
    Show more